Location: ????
(30.1475°N, 31.1342°E)
Time: 20:46:49
(UTC+00:00)

Meteor 1-11 Rocket - Visible Passes

Search period start: 28 March 2023 00:00
Search period end: 07 April 2023 00:00
Orbit: 830 x 916 km, 81.2° (Epoch: 28 March)

Date Brightness Start Highest point End Pass type
(mag) Time Alt. Az. Time Alt. Az. Time Alt. Az.
28 Mar 6.4 01:36:34 10° NNE 01:40:06 17° ENE 01:43:35 10° ESE visible
28 Mar 4.0 03:18:27 10° NNW 03:23:38 43° W 03:28:48 10° SSW visible
29 Mar 6.3 01:31:08 10° NNE 01:34:49 18° ENE 01:38:29 10° ESE visible
29 Mar 4.1 03:13:11 10° NNW 03:18:20 41° W 03:23:26 10° SSW visible
30 Mar 6.2 01:25:41 10° NNE 01:29:32 19° ENE 01:33:22 10° ESE visible
30 Mar 4.1 03:07:56 10° NNW 03:13:00 38° W 03:18:03 10° SSW visible
31 Mar 6.1 01:20:15 10° NNE 01:24:16 20° ENE 01:28:14 10° ESE visible
31 Mar 4.2 03:02:41 10° NNW 03:07:41 36° W 03:12:40 10° SSW visible
01 Apr 6.0 01:14:50 10° NNE 01:18:58 21° ENE 01:23:05 10° ESE visible
01 Apr 4.2 02:57:26 10° NNW 03:02:21 34° W 03:07:17 10° SSW visible
02 Apr 5.9 01:09:25 10° NNE 01:13:41 23° ENE 01:17:56 10° SE visible
02 Apr 4.3 02:52:11 10° NNW 02:57:03 32° W 03:01:53 10° SSW visible
03 Apr 5.8 01:04:01 10° NNE 01:08:24 24° ENE 01:12:46 10° SE visible
03 Apr 4.4 02:46:57 10° NNW 02:51:43 31° W 02:56:28 10° SSW visible
04 Apr 5.7 00:58:37 10° NNE 01:03:07 25° ENE 01:07:36 10° SE visible
04 Apr 4.4 02:41:43 10° NNW 02:46:23 29° W 02:51:04 10° SSW visible
05 Apr 5.6 00:53:14 10° NNE 00:57:49 27° ENE 01:02:25 10° SE visible
05 Apr 4.5 02:36:30 10° NW 02:41:04 27° W 02:45:39 10° SSW visible
06 Apr 5.4 00:47:50 10° NNE 00:52:32 28° ENE 00:57:13 10° SE visible
06 Apr 4.6 02:31:16 10° NW 02:35:44 26° W 02:39:44 12° SW visible
